Presure
170 173 144 197 144 118 174 143 196 177 157 127 151 159 142 200 192 210 207 210 221 215 224 245 250 225 253 271 270 259 268 277 277 357 357 319 274 253 243 233 232 238 229 228 231
118 155 198 136 167 187 191 123 196 158 196 198 191 166 198 200 203 196 152 141 143 211 200 210 206 212 234 237 254 276 278 263 264 279 280 341 331 297 275 256 246 237 231 229 225
147 147 116 112 132 188 140 179 121 160 203 184 195 150 136 171 169 150 192 195 139 206 130 206 132 199 222 220 256 246 249 272 274 259 250 378 346 321 309 282 273 257 245 238 238
105 125 119 117 124 138 126 148 133 164 123 189 190 192 191 187 199 131 178 162 194 198 210 195 209 201 226 212 219 245 241 223 262 270 251 240 362 354 341 331 310 290 273 263 250
149 122 115 110 116 135 124 175 150 180 177 192 164 182 196 190 194 185 155 191 171 190 202 200 200 179 197 211 222 226 246 240 237 229 270 260 251 229 281 296 305 310 300 298 288
107 121 113 161 137 117 159 130 125 183 134 181 186 171 198 186 164 185 173 187 188 200 181 185 207 205 194 207 218 223 228 238 241 220 235 261 274 257 237 229 255 284 290 271 270
124 123 141 129 108 132 136 128 105 154 114 180 194 179 193 187 183 182 192 174 191 177 189 190 201 193 185 200 209 219 235 234 227 240 229 259 230 166 266 251 245 258 265 272 329
102 141 132 121 156 125 126 110 115 123 173 125 168 188 176 134 180 178 191 152 178 193 163 195 199 191 204 188 205 213 216 223 224 230 239 229 232 228 248 254 247 249 250 241 253
132 114 129 133 137 167 123 129 117 160 173 168 145 181 179 186 168 169 184 179 164 177 189 139 192 193 179 194 199 218 215 238 232 227 236 241 235 226 257 244 251 245 228 246 242
150 142 115 106 103 135 152 131 145 140 106 164 164 174 178 178 180 148 167 180 165 180 178 169 188 188 184 196 200 217 203 224 224 236 231 231 194 246 241 249 241 233 245 234 235
105 108 112 140 114 140 128 167 112 154 174 176 170 176 170 158 179 155 172 182 175 155 178 183 182 168 187 179 192 212 206 200 219 229 229 185 255 250 248 250 242 246 229 247 231
120 122 124 133 130 127 142 130 128 163 169 154 168 154 170 152 171 164 170 171 159 182 179 178 183 187 185 190 191 191 206 209 221 229 230 226 229 261 245 249 239 242 242 232 241
118 114 146 145 110 130 140 113 145 160 135 121 149 160 171 161 162 177 171 178 172 176 174 173 181 187 179 193 190 186 219 202 213 246 235 229 225 270 257 245 244 234 240 241 232
101 149 127 141 137 132 144 106 101 151 148 165 149 146 173 165 170 154 164 166 166 164 166 180 173 181 157 188 188 204 226 206 207 205 225 234 238 216 268 254 243 238 229 245 227
124 128 138 155 148 166 113 91 129 151 127 168 163 138 136 159 153 157 161 156 173 181 172 187 176 177 181 176 192 199 206 201 203 234 235 235 245 227 274 258 249 241 232 230 242
158 135 142 162 114 138 158 130 104 109 138 117 143 157 145 136 159 165 167 167 175 158 177 154 169 182 183 185 189 202 210 202 224 212 216 249 261 229 280 266 252 247 239 227 241
127 157 133 151 140 117 113 119 125 128 132 129 142 161 157 156 166 154 151 159 152 175 171 154 173 167 179 178 190 200 202 204 226 207 243 242 238 234 284 274 258 250 241 229 234
129 147 132 116 130 157 167 129 129 130 123 143 138 126 134 167 167 147 160 145 161 161 173 173 175 168 185 178 192 197 189 208 221 232 225 231 240 242 293 274 266 255 244 232 229
160 119 134 160 126 128 158 125 104 124 141 135 146 138 102 117 146 131 157 160 159 163 167 157 177 172 183 171 201 212 211 212 212 238 224 233 245 303 287 282 270 256 246 237 225
143 124 153 134 148 160 135 138 120 116 128 121 130 132 144 138 153 161 147 174 170 169 168 169 156 173 183 181 202 208 207 205 214 236 224 240 252 309 289 281 271 257 252 242 233
139 125 155 132 111 148 123 136 114 117 119 125 126 123 118 141 144 161 162 172 150 172 175 170 185 177 180 182 199 210 208 206 212 240 221 249 250 321 290 280 276 262 251 243 234
137 119 162 152 136 131 150 100 135 151 121 115 153 145 164 158 141 159 170 154 155 178 169 179 169 169 178 185 197 205 208 203 219 245 213 243 249 261 311 276 265 267 254 246 236
151 123 137 127 129 122 126 125 129 133 131 146 121 146 139 138 165 148 161 171 176 146 183 181 184 179 181 192 200 203 212 210 230 209 226 252 211 266 256 295 283 253 264 253 244
147 120 118 120 146 132 128 131 132 132 132 132 135 119 152 163 122 162 142 171 166 167 173 179 171 180 184 196 205 203 209 214 214 217 236 255 219 270 300 288 275 277 259 269 249
119 120 137 142 129 132 119 128 133 120 127 171 138 163 160 129 157 163 123 124 161 164 177 184 177 182 183 201 196 203 205 228 197 223 252 233 245 245 265 294 277 274 266 273 261
138 123 165 168 128 104 143 127 131 133 134 155 120 140 136 142 156 170 158 176 166 169 183 174 189 187 194 201 199 205 221 201 227 224 246 249 223 255 238 291 283 271 276 265 264
139 140 137 133 117 139 151 123 133 103 115 172 134 147 122 122 146 174 174 113 172 183 177 184 195 196 200 178 202 208 232 202 225 238 251 244 249 266 245 250 283 269 270 255 256
Wind_Speed
41 39 28 46 23 21 37 22 50 43 30 26 33 21 21 52 46 58 55 56 66 56 66 67 58 43 38 28 24 22 18 22 18 20 32 40 48 52 53 53 56 60 56 56 58
29 38 49 29 40 47 45 24 48 35 50 51 49 33 55 56 61 52 12 20 28 62 51 55 50 62 74 51 39 29 29 23 21 25 25 24 41 52 56 58 60 60 59 61 60
35 34 26 23 35 42 33 35 19 41 52 37 51 31 24 38 34 27 50 55 27 68 31 61 26 48 76 68 53 47 43 36 33 29 27 23 22 33 50 59 62 65 65 66 69
20 32 25 25 27 36 36 38 36 44 20 43 51 45 43 40 62 25 36 36 57 61 72 58 69 51 82 68 66 65 54 43 41 38 34 37 17 19 22 27 39 61 70 71 72
32 31 24 23 28 38 34 31 42 45 33 50 36 36 56 47 58 44 40 57 45 56 71 63 63 54 56 78 86 76 65 59 53 47 40 34 35 15 27 19 13 16 33 43 48
21 27 24 26 39 28 41 42 38 41 34 38 47 37 57 47 40 51 54 57 57 73 43 47 76 73 58 78 85 81 75 69 60 39 48 40 35 24 22 22 18 14 24 36 41
37 33 32 38 14 41 37 43 11 43 28 37 55 37 58 54 48 41 62 38 70 45 66 63 76 62 47 77 81 82 81 75 66 64 55 52 43 24 31 27 23 22 23 22 21
10 25 32 33 26 41 40 17 26 41 37 27 46 54 44 36 48 45 64 45 50 73 39 76 77 66 84 60 82 85 79 75 69 70 64 55 53 44 44 38 37 32 30 24 36
26 26 25 29 24 29 40 40 31 32 38 32 46 53 53 59 35 48 63 54 41 57 76 39 78 71 62 74 78 93 84 81 77 71 72 65 59 51 45 41 40 42 40 43 42
15 17 17 9 11 30 28 34 34 33 21 37 46 51 55 55 59 40 45 67 46 71 68 50 77 73 62 83 91 95 83 83 79 77 75 71 41 60 56 48 45 44 45 45 44
13 18 26 20 30 27 32 36 30 32 46 50 50 55 53 33 63 33 58 70 67 46 74 77 72 48 77 55 84 95 87 68 79 79 75 49 62 60 56 47 45 43 44 49 48
24 27 29 27 26 29 26 25 36 40 45 34 49 46 55 36 60 55 63 63 46 78 77 75 77 82 83 88 85 79 89 83 80 80 76 71 71 57 57 52 50 48 46 47 50
25 19 22 24 19 26 27 29 34 37 32 29 37 45 59 44 49 69 66 72 68 76 72 70 81 85 76 92 85 80 94 86 84 77 73 75 69 59 53 51 46 48 49 46 48
7 17 31 25 30 24 31 21 23 35 31 49 38 41 62 55 64 46 58 66 59 58 63 80 74 85 53 90 87 99 95 88 87 79 77 72 75 62 50 47 45 43 44 45 43
28 24 22 25 24 36 28 19 35 38 39 52 50 42 41 51 48 54 59 50 75 84 74 89 83 82 87 76 95 96 92 89 85 90 82 80 73 68 47 44 42 41 41 42 43
24 25 26 31 25 27 36 31 28 29 38 35 44 49 46 48 58 66 72 75 82 56 81 52 77 90 89 91 92 100 97 90 97 90 87 81 72 70 42 40 39 38 39 37 42
24 29 27 29 27 24 25 27 31 37 39 42 47 56 53 57 66 56 51 63 52 85 76 50 87 78 92 88 95 100 94 94 98 83 85 84 82 73 38 34 35 34 35 35 37
27 30 28 20 28 39 50 34 35 37 38 43 43 45 49 67 68 57 68 52 72 70 91 87 92 84 98 87 97 101 88 100 104 99 97 95 86 76 35 37 32 31 31 33 32
36 19 33 39 26 33 44 34 33 38 46 45 50 49 43 50 52 55 65 70 71 75 86 70 92 86 98 83 103 107 106 105 102 102 99 97 89 41 42 35 29 31 30 33 31
33 23 37 36 39 46 36 38 36 37 43 40 46 49 56 51 61 72 56 87 85 87 87 91 75 91 99 99 108 107 107 104 109 104 107 94 88 43 41 40 32 32 31 32 33
35 31 39 36 25 41 36 40 33 38 39 48 49 48 53 60 61 76 79 87 61 90 93 90 102 97 97 102 113 113 110 106 111 103 107 88 84 47 43 40 34 35 35 35 37
38 25 49 41 39 40 45 36 45 56 44 42 62 61 73 71 65 76 88 72 72 93 89 98 89 94 98 106 117 117 113 107 116 98 107 91 81 65 45 41 41 38 38 37 40
44 30 42 38 39 36 40 41 44 47 49 59 49 66 63 64 81 74 83 92 94 62 98 100 102 100 100 112 120 118 117 114 113 107 114 88 90 65 59 43 42 41 40 41 42
48 32 35 35 53 47 45 47 47 51 54 56 59 54 72 82 58 84 76 91 90 90 94 98 94 107 106 120 121 119 117 117 113 113 98 81 91 73 53 48 45 43 41 42 45
37 37 49 51 50 51 36 51 55 44 52 84 64 80 80 64 84 91 69 68 86 92 105 106 99 107 112 122 118 122 118 120 103 116 88 92 81 73 70 46 43 44 42 35 44
52 39 67 71 53 37 60 52 57 62 63 75 49 68 70 74 86 97 88 101 97 103 113 103 115 111 123 122 121 121 128 110 112 115 94 80 90 77 69 48 40 41 41 36 36
58 58 58 57 37 62 68 50 60 44 56 91 70 81 61 67 85 104 104 64 103 112 108 115 120 119 121 103 119 122 116 109 115 105 90 91 89 74 71 63 46 38 37 40 41
Wind_Direction
62 62 67 66 61 55 68 56 62 57 39 15 37 30 23 55 46 50 44 42 46 45 46 43 40 26 21 12 4 341 349 17 341 318 271 256 256 256 256 256 256 254 252 248 247
63 62 70 60 56 59 62 44 61 56 67 65 61 33 55 54 50 45 7 351 355 38 29 40 35 34 32 27 23 9 6 350 346 356 300 273 256 249 252 255 255 256 255 253 249
58 57 62 52 60 64 56 63 33 41 63 56 56 48 22 31 16 23 44 43 356 41 341 38 335 24 33 31 24 22 21 9 5 346 348 299 274 256 251 250 252 253 254 255 254
55 73 74 70 72 48 56 43 48 49 47 63 54 58 55 53 48 3 37 6 38 38 34 30 33 31 31 28 26 24 20 16 11 2 348 346 327 292 287 278 261 256 255 257 257
59 73 64 71 73 40 54 54 45 51 49 54 40 53 49 52 47 47 29 41 29 30 32 33 32 22 23 26 25 24 20 16 15 14 360 353 348 321 24 358 314 279 262 262 255
62 65 67 46 31 60 40 37 44 53 41 51 49 36 41 49 35 45 33 42 38 29 24 21 28 27 22 25 22 19 20 18 14 359 11 2 358 348 322 319 359 347 278 273 269
50 49 29 32 55 28 30 30 13 37 39 48 36 42 36 37 42 42 35 35 29 21 28 27 25 23 15 23 20 18 16 15 16 9 9 0 6 286 355 344 333 344 358 357 315
93 29 29 41 47 28 25 47 44 27 43 33 29 34 36 18 38 37 29 5 29 23 3 21 23 21 22 17 18 17 14 14 13 11 4 3 2 358 353 347 333 337 339 322 336
28 48 37 20 21 34 19 10 25 25 33 35 17 30 32 27 34 23 24 27 16 21 19 7 19 20 12 18 12 12 13 11 9 10 4 359 356 355 345 344 346 344 339 338 337
27 37 42 9 35 16 23 9 11 20 6 29 22 28 26 25 22 352 23 19 17 18 18 13 18 16 18 14 14 11 11 10 9 5 2 359 340 349 348 343 344 342 333 331 335
83 45 29 9 18 12 2 20 12 21 17 16 22 19 24 17 17 11 20 13 15 352 13 14 16 2 15 10 12 10 9 360 5 5 3 350 346 344 342 339 338 336 334 336 334
26 17 12 1 6 12 10 359 6 12 10 16 16 10 17 6 15 13 14 15 360 8 10 11 11 10 11 11 10 8 6 8 6 3 358 360 355 338 337 334 335 334 337 336 337
20 24 357 353 10 1 2 4 1 7 4 354 5 15 9 11 8 6 9 6 10 7 7 7 6 6 9 5 6 4 3 5 4 1 359 356 357 335 332 331 330 330 331 335 337
315 341 350 348 352 1 357 351 346 360 3 3 1 356 3 3 3 4 9 9 5 8 6 2 4 3 344 3 4 0 360 0 1 359 2 356 349 353 328 324 324 324 327 331 332
350 349 343 345 343 350 351 347 346 352 347 354 0 346 346 4 1 1 2 2 1 358 3 358 1 2 0 2 358 359 359 358 357 358 357 357 348 351 326 320 320 319 321 328 332
320 331 330 342 350 342 347 339 329 337 347 342 349 356 352 345 359 358 356 357 354 354 358 349 358 355 356 356 356 354 355 356 356 356 355 349 343 347 323 317 315 312 314 322 328
327 320 324 331 326 336 340 338 337 343 343 340 346 354 354 348 351 354 353 355 350 351 356 348 354 354 353 355 353 352 353 353 355 355 351 350 349 345 317 313 308 307 308 315 324
320 321 322 325 323 331 335 334 332 338 337 344 341 337 340 345 347 347 352 342 352 350 349 352 351 351 348 350 350 350 351 351 353 354 353 350 347 343 317 312 300 300 300 305 314
312 324 317 325 324 329 331 331 312 333 340 337 342 338 334 335 344 335 348 349 349 347 348 345 348 347 345 346 346 347 349 348 350 351 351 348 344 327 321 311 294 294 292 298 301
310 316 312 316 321 322 325 324 327 324 328 327 332 333 337 339 343 342 342 341 342 343 344 344 342 344 344 343 345 347 347 347 346 347 351 347 339 326 316 315 300 291 290 290 294
306 312 312 310 317 318 319 321 318 323 321 327 331 331 327 336 339 339 340 338 341 339 340 341 340 341 342 341 343 344 345 345 344 343 349 345 341 334 317 311 301 291 290 286 289
303 308 306 309 310 316 317 310 319 320 326 317 328 330 328 332 333 337 333 337 335 336 338 337 339 338 339 340 341 341 342 342 342 338 343 342 338 340 326 313 309 293 288 280 282
299 298 307 308 309 315 314 317 318 322 322 326 324 327 329 330 330 329 333 331 333 331 335 335 336 336 337 339 339 338 339 339 339 341 340 337 341 341 339 320 306 299 284 279 275
299 296 298 309 307 306 313 316 318 321 321 322 323 322 326 326 326 330 327 329 329 332 333 333 336 334 335 337 337 336 337 338 338 338 336 333 336 343 332 324 313 308 293 278 272
294 292 301 301 305 308 298 316 317 311 316 314 320 322 323 320 326 326 320 328 328 330 330 331 334 334 332 335 334 333 334 334 335 336 330 332 333 339 345 319 312 309 302 291 269
295 290 297 297 303 281 307 312 313 314 316 317 312 319 320 320 320 324 324 326 327 327 327 329 330 332 330 332 332 332 332 333 332 332 328 331 331 333 337 333 319 308 308 295 285
293 293 297 298 297 304 303 307 312 308 309 311 315 317 306 319 319 321 323 328 324 324 325 326 327 329 329 329 330 329 327 330 329 324 327 330 333 333 331 334 330 319 304 293 288